TimeEDT,TemperatureF,Dew PointF,Humidity,Sea Level PressureIn,VisibilityMPH,Wind Direction,Wind SpeedMPH,Gust SpeedMPH,PrecipitationIn,Events,Conditions,WindDirDegrees,DateUTC
12:53 AM,62.1,57.0,84,30.09,10.0,North,5.8,-,N/A,,Mostly Cloudy,10,2013-05-03 04:53:00
1:53 AM,61.0,55.0,81,30.08,10.0,North,5.8,-,N/A,,Mostly Cloudy,10,2013-05-03 05:53:00
2:53 AM,60.1,53.1,78,30.06,10.0,NNE,8.1,-,N/A,,Mostly Cloudy,30,2013-05-03 06:53:00
3:53 AM,55.9,52.0,87,30.06,10.0,NE,5.8,-,N/A,,Mostly Cloudy,50,2013-05-03 07:53:00
4:53 AM,57.0,52.0,83,30.05,10.0,NNE,6.9,-,N/A,,Mostly Cloudy,20,2013-05-03 08:53:00
5:53 AM,55.9,52.0,87,30.05,10.0,NE,4.6,-,N/A,,Mostly Cloudy,40,2013-05-03 09:53:00
6:53 AM,57.0,52.0,83,30.06,10.0,NNE,6.9,-,N/A,,Mostly Cloudy,30,2013-05-03 10:53:00
7:53 AM,57.9,53.1,84,30.07,10.0,NNE,8.1,-,N/A,,Mostly Cloudy,20,2013-05-03 11:53:00
8:53 AM,60.1,53.1,78,30.06,10.0,NE,6.9,-,N/A,,Mostly Cloudy,40,2013-05-03 12:53:00
9:53 AM,64.0,54.0,70,30.06,10.0,ENE,10.4,-,N/A,,Mostly Cloudy,60,2013-05-03 13:53:00
10:53 AM,66.0,55.0,68,30.04,10.0,NE,8.1,-,N/A,,Mostly Cloudy,40,2013-05-03 14:53:00
11:53 AM,71.1,55.0,57,30.04,10.0,NNE,6.9,-,N/A,,Mostly Cloudy,20,2013-05-03 15:53:00
12:53 PM,71.1,53.1,53,30.02,10.0,NE,8.1,-,N/A,,Mostly Cloudy,40,2013-05-03 16:53:00
1:53 PM,73.9,53.1,48,29.99,10.0,ESE,8.1,-,N/A,,Clear,110,2013-05-03 17:53:00
2:53 PM,73.9,53.1,48,29.97,10.0,North,6.9,-,N/A,,Mostly Cloudy,10,2013-05-03 18:53:00
3:53 PM,73.0,54.0,51,29.96,10.0,ENE,6.9,-,N/A,,Mostly Cloudy,60,2013-05-03 19:53:00
4:53 PM,73.0,50.0,44,29.96,10.0,SE,10.4,-,N/A,,Mostly Cloudy,140,2013-05-03 20:53:00
5:53 PM,69.1,50.0,51,29.96,10.0,South,9.2,20.7,N/A,,Mostly Cloudy,180,2013-05-03 21:53:00
6:53 PM,70.0,42.1,36,29.96,10.0,SE,15.0,26.5,N/A,,Mostly Cloudy,140,2013-05-03 22:53:00
7:53 PM,68.0,46.0,45,29.96,10.0,East,4.6,-,N/A,,Mostly Cloudy,90,2013-05-03 23:53:00
8:53 PM,64.9,46.9,52,29.96,10.0,ENE,9.2,-,N/A,,Mostly Cloudy,70,2013-05-04 00:53:00
9:53 PM,64.0,48.0,56,29.96,10.0,East,10.4,-,N/A,,Mostly Cloudy,80,2013-05-04 01:53:00
10:53 PM,64.0,46.9,54,29.97,10.0,East,12.7,25.3,N/A,,Mostly Cloudy,100,2013-05-04 02:53:00
11:53 PM,62.1,48.0,60,29.95,10.0,ENE,5.8,-,N/A,,Mostly Cloudy,70,2013-05-04 03:53:00